Weather History for Big Rapids, MI

Change the Weather History Date:

Tuesday, December 10, 2013

  Actual Average Record
Temperature  
Mean Temperature 12 °F -  
Max Temperature 19 °F 34 °F 60 °F (1971)
Min Temperature 6 °F 19 °F -8 °F (1977)
Degree Days  
Heating Degree Days 52    
Moisture  
Dew Point 9 °F    
Average Humidity 82    
Maximum Humidity 88    
Minimum Humidity 74    
Precipitation  
Precipitation 0.03 in - - ()
Sea Level Pressure  
Sea Level Pressure 29.95 in    
Wind  
Wind Speed 6 mph (WSW)    
Max Wind Speed 18 mph    
Max Gust Speed 24 mph    
Visibility 3 miles    
Events Snow    
Averages and records for this station are not official NWS values.
T = Trace of Precipitation, MM = Missing Value Source: NWS Daily Summary

Daily Weather History Graph

Daily Weather History Graph

Search for Another Location

Airport:

Trip Planner

Search our weather history database for the weather conditions in past years. The results will help you decide how hot, cold, wet, or windy it might be!

Date:

Astronomy

Dec. 10, 2013 Rise Set
Actual Time 8:05 AM EST 5:04 PM EST
Civil Twilight 7:32 AM EST 5:37 PM EST
Nautical Twilight 6:56 AM EST 6:13 PM EST
Astronomical Twilight 6:21 AM EST 6:48 PM EST
Moon 1:15 PM EST (12/10) 1:11 AM EST (12/10)
Length of Visible Light 10h 05m
Length of Day
8h 59m
First Quarter, 61% of the Moon is Illuminated
Dec 10
First Quarter
Dec 17
Full
Dec 25
Last Quarter
Jan 1
New
Jan 7
First Quarter

Hourly Weather History & Observations

Time (EST) Temp. Windchill Dew Point Humidity Pressure Visibility Wind Dir Wind Speed Gust Speed Precip Events Conditions
12:15 AM 10.8 °F 2.7 °F 5.2 °F 78% 30.04 in 1.8 mi WNW 4.6 mph - N/A Snow Light Snow
12:35 AM 10.0 °F 1.8 °F 4.8 °F 79% 30.04 in 3.0 mi WNW 4.6 mph - N/A Snow Light Snow
12:55 AM 8.8 °F 0.4 °F 3.9 °F 81% 30.03 in 5.0 mi West 4.6 mph - N/A Snow Light Snow
1:14 AM 8.6 °F - 3.9 °F 81% 30.03 in 4.0 mi Calm Calm - N/A Snow Light Snow
1:35 AM 6.8 °F -0.1 °F 2.7 °F 83% 30.03 in 2.0 mi West 3.5 mph - N/A Snow Light Snow
1:55 AM 7.5 °F - 3.2 °F 82% 30.03 in 3.0 mi Calm Calm - N/A Snow Light Snow
2:14 AM 8.2 °F 1.6 °F 4.1 °F 83% 30.03 in 2.5 mi West 3.5 mph - N/A Snow Light Snow
2:35 AM 8.8 °F - 4.8 °F 84% 30.03 in 1.5 mi Calm Calm - N/A Snow Light Snow
2:55 AM 7.7 °F - 3.9 °F 85% 30.03 in 2.5 mi Calm Calm - N/A Snow Light Snow
3:14 AM 9.3 °F 2.8 °F 5.0 °F 83% 30.03 in 2.0 mi SW 3.5 mph - N/A Snow Light Snow
3:35 AM 10.0 °F 0.4 °F 5.4 °F 81% 30.02 in 5.0 mi SW 5.8 mph - N/A Snow Light Snow
3:55 AM 10.4 °F -1.5 °F 4.8 °F 78% 30.02 in 10.0 mi WSW 8.1 mph - N/A Snow Light Snow
4:14 AM 9.7 °F -2.4 °F 4.1 °F 78% 30.02 in 10.0 mi WSW 8.1 mph - N/A   Mostly Cloudy
4:35 AM 9.9 °F 0.2 °F 4.5 °F 79% 30.01 in 10.0 mi WSW 5.8 mph - N/A   Overcast
4:55 AM 9.5 °F 1.2 °F 4.1 °F 79% 30.00 in 10.0 mi SW 4.6 mph - N/A Snow Light Snow
5:14 AM 9.5 °F 3.0 °F 4.5 °F 80% 29.99 in 7.0 mi SW 3.5 mph - N/A Snow Light Snow
5:35 AM 9.7 °F - 4.8 °F 81% 29.99 in 4.0 mi Calm Calm - N/A Snow Light Snow
5:55 AM 9.5 °F 3.0 °F 5.2 °F 83% 29.97 in 2.0 mi South 3.5 mph - N/A Snow Light Snow
6:14 AM 9.3 °F - 5.5 °F 85% 29.97 in 3.0 mi Calm Calm - N/A Snow Light Snow
6:35 AM 9.3 °F 1.0 °F 5.7 °F 85% 29.96 in 2.0 mi SSE 4.6 mph - N/A Snow Light Snow
6:55 AM 9.3 °F 2.8 °F 5.9 °F 86% 29.94 in 2.5 mi SSE 3.5 mph - N/A Snow Light Snow
7:14 AM 9.0 °F - 5.5 °F 86% 29.94 in 3.0 mi Calm Calm - N/A Snow Light Snow
7:35 AM 7.7 °F -0.9 °F 4.6 °F 87% 29.92 in 7.0 mi SSE 4.6 mph - N/A Snow Light Snow
7:55 AM 7.7 °F 1.0 °F 4.8 °F 88% 29.91 in 10.0 mi SSE 3.5 mph - N/A Snow Light Snow
8:14 AM 8.1 °F - 5.0 °F 87% 29.91 in 3.0 mi Calm Calm - N/A Snow Light Snow
8:35 AM 9.0 °F - 5.9 °F 87% 29.91 in 1.5 mi Calm Calm - N/A Snow Light Snow
8:55 AM 9.9 °F 1.6 °F 6.6 °F 87% 29.89 in 1.5 mi SSE 4.6 mph - N/A Snow Light Snow
9:14 AM 10.6 °F 4.3 °F 7.3 °F 87% 29.88 in 1.5 mi SSE 3.5 mph - N/A Snow Light Snow
9:35 AM 12.2 °F 4.3 °F 8.6 °F 85% 29.88 in 1.2 mi South 4.6 mph - N/A Snow Light Snow
9:55 AM 13.3 °F 2.0 °F 9.5 °F 85% 29.87 in 1.0 mi South 8.1 mph - N/A Snow Light Snow
10:14 AM 14.0 °F 3.9 °F 10.0 °F 84% 29.86 in 1.2 mi South 6.9 mph - N/A Snow Light Snow
10:35 AM 14.7 °F 3.8 °F 10.8 °F 84% 29.85 in 0.8 mi South 8.1 mph - N/A Snow Light Snow
10:55 AM 15.4 °F 3.0 °F 11.1 °F 83% 29.83 in 1.0 mi South 10.4 mph - N/A Snow Light Snow
11:14 AM 15.8 °F 4.2 °F 11.8 °F 84% 29.82 in 0.8 mi South 9.2 mph - N/A Snow Light Snow
11:35 AM 16.0 °F 2.3 °F 12.0 °F 84% 29.82 in 0.5 mi South 12.7 mph 17.3 mph N/A Snow Light Snow
11:55 AM 16.0 °F 2.9 °F 12.0 °F 84% 29.81 in 0.5 mi SW 11.5 mph 19.6 mph N/A Snow Snow
12:14 PM 16.0 °F 3.6 °F 11.8 °F 84% 29.82 in 0.2 mi SW 10.4 mph 17.3 mph N/A Snow Snow
12:35 PM 15.8 °F 5.1 °F 12.0 °F 85% 29.82 in 0.2 mi SW 8.1 mph 17.3 mph N/A Snow Snow
12:55 PM 16.7 °F 6.2 °F 12.6 °F 84% 29.81 in 0.5 mi WSW 8.1 mph - N/A Snow Snow
1:14 PM 18.1 °F 4.4 °F 12.9 °F 80% 29.81 in 1.2 mi WSW 13.8 mph 19.6 mph N/A Snow Light Snow
1:35 PM 18.5 °F 7.5 °F 12.9 °F 79% 29.82 in 1.5 mi West 9.2 mph 18.4 mph N/A Snow Light Snow
1:55 PM 18.1 °F 5.6 °F 12.2 °F 78% 29.81 in 0.8 mi West 11.5 mph 21.9 mph N/A Snow Light Snow
2:14 PM 18.5 °F 4.9 °F 12.4 °F 77% 29.82 in 1.8 mi West 13.8 mph - N/A Snow Light Snow
2:35 PM 18.9 °F 6.5 °F 13.3 °F 79% 29.82 in 1.5 mi West 11.5 mph 20.7 mph N/A Snow Light Snow
2:54 PM 19.0 °F 3.6 °F 13.3 °F 78% 29.83 in 1.5 mi West 18.4 mph 24.2 mph N/A Snow Light Snow
3:15 PM 19.2 °F 6.4 °F 13.1 °F 77% 29.84 in - West 12.7 mph 24.2 mph 0.03 in Snow Light Snow
3:35 PM 17.8 °F 2.9 °F 12.6 °F 80% 29.85 in 1.2 mi West 16.1 mph 21.9 mph 0.03 in Snow Light Snow
3:55 PM 17.6 °F 3.7 °F 13.1 °F 83% 29.87 in 1.0 mi West 13.8 mph 20.7 mph 0.03 in Snow Light Snow
4:15 PM 17.6 °F 5.7 °F 13.6 °F 84% 29.89 in 0.2 mi West 10.4 mph - N/A Snow Snow
4:35 PM 17.4 °F 4.1 °F 13.5 °F 84% 29.90 in 0.2 mi West 12.7 mph 19.6 mph N/A Snow Snow
4:54 PM 17.1 °F 3.0 °F 12.9 °F 84% 29.91 in 1.2 mi West 13.8 mph 19.6 mph N/A Snow Light Snow
5:15 PM 17.1 °F 2.5 °F 12.9 °F 84% 29.93 in 0.2 mi West 15.0 mph 21.9 mph N/A Snow Light Snow
5:35 PM 16.9 °F 3.4 °F 12.9 °F 84% 29.94 in 1.2 mi West 12.7 mph 18.4 mph N/A Snow Light Snow
5:54 PM 17.1 °F 2.5 °F 13.1 °F 84% 29.95 in 0.5 mi West 15.0 mph - N/A Snow Snow
6:15 PM 16.7 °F 2.6 °F 11.7 °F 81% 29.97 in 4.0 mi West 13.8 mph 24.2 mph N/A Snow Light Snow
6:35 PM 16.2 °F 0.3 °F 11.1 °F 81% 29.97 in 2.5 mi West 17.3 mph 20.7 mph N/A Snow Light Snow
6:54 PM 15.8 °F 2.1 °F 10.9 °F 81% 29.98 in 3.0 mi WNW 12.7 mph 17.3 mph N/A Snow Light Snow
7:15 PM 15.4 °F 3.0 °F 10.9 °F 82% 30.00 in 3.0 mi West 10.4 mph 16.1 mph N/A Snow Light Snow
7:35 PM 15.6 °F 3.2 °F 10.9 °F 82% 30.01 in 4.0 mi West 10.4 mph 16.1 mph N/A Snow Light Snow
7:54 PM 15.3 °F 3.5 °F 10.4 °F 81% 30.01 in 5.0 mi West 9.2 mph - N/A Snow Light Snow
8:15 PM 15.4 °F 3.8 °F 10.6 °F 81% 30.01 in 5.0 mi West 9.2 mph - N/A Snow Light Snow
8:35 PM 15.6 °F 4.0 °F 10.9 °F 82% 30.02 in 4.0 mi West 9.2 mph - N/A Snow Light Snow
8:54 PM 15.4 °F 1.0 °F 10.9 °F 82% 30.02 in 5.0 mi West 13.8 mph 18.4 mph N/A Snow Light Snow
9:15 PM 15.6 °F 2.5 °F 11.1 °F 82% 30.04 in 3.0 mi West 11.5 mph 16.1 mph N/A Snow Light Snow
9:35 PM 15.6 °F 1.8 °F 10.2 °F 79% 30.05 in 5.0 mi West 12.7 mph - N/A Snow Light Snow
9:55 PM 15.6 °F 1.2 °F 10.0 °F 79% 30.06 in 4.0 mi West 13.8 mph 24.2 mph N/A Snow Light Snow
10:15 PM 14.9 °F -0.3 °F 9.7 °F 80% 30.07 in 7.0 mi West 15.0 mph 19.6 mph N/A Snow Light Snow
10:35 PM 15.4 °F 3.0 °F 9.3 °F 77% 30.07 in 7.0 mi West 10.4 mph 16.1 mph N/A Snow Light Snow
10:55 PM 14.9 °F 0.3 °F 8.1 °F 74% 30.08 in 7.0 mi West 13.8 mph 21.9 mph N/A   Scattered Clouds
11:15 PM 14.5 °F 2.7 °F 8.2 °F 76% 30.08 in 7.0 mi West 9.2 mph - N/A Snow Light Snow
11:35 PM 14.5 °F 2.7 °F 9.1 °F 79% 30.09 in 5.0 mi West 9.2 mph - N/A Snow Light Snow
11:55 PM 14.7 °F 2.1 °F 9.5 °F 80% 30.10 in 7.0 mi West 10.4 mph - N/A Snow Light Snow